GW6608 Weather Reports


Display with metric or nautical units.
time (UTC)temp
F
wind
direction
speed
MPH
gust
MPH
rain 1hr
in
rain 24hr
in
rain mn
in
humidity
%
barometer
mb
20260506045040 59 196 1.0 7.0 0.00 0.00 0.00 70 1012.1
20260506044538 59 185 2.0 8.0 0.00 0.00 0.00 70 1012.4
20260506044034 59 215 2.0 2.0 0.00 0.00 0.00 70 1012.4
20260506043531 59 180 1.0 2.0 0.00 0.00 0.00 70 1012.1
20260506043030 59 176 0.0 2.0 0.00 0.00 0.00 71 1012.1
20260506042529 59 172 1.0 3.0 0.00 0.00 0.00 70 1012.3
20260506042026 59 210 1.0 2.0 0.00 0.00 0.00 70 1012.3
20260506041525 59 221 3.0 3.0 0.00 0.00 0.00 70 1012.1
20260506041021 59 226 2.0 3.0 0.00 0.00 0.00 70 1012.3
20260506040519 60 177 1.0 2.0 0.00 0.00 0.00 70 1012.3
20260506040014 60 164 3.0 4.0 0.00 0.00 0.00 69 1012.0
20260506035512 60 157 1.0 2.0 0.00 0.00 0.00 70 1012.2
20260506035008 60 182 3.0 3.0 0.00 0.00 0.00 69 1012.1
20260506034506 60 193 2.0 4.0 0.00 0.00 0.00 69 1012.1
20260506034003 59 230 3.0 6.0 0.00 0.00 0.00 70 1012.0
20260506033500 59 140 0.0 2.0 0.00 0.00 0.00 71 1011.9
20260506032956 58 225 3.0 8.0 0.00 0.00 0.00 72 1012.0
20260506032454 58 165 0.0 2.0 0.00 0.00 0.00 72 1012.2
20260506031950 58 198 1.0 2.0 0.00 0.00 0.00 72 1012.0
20260506031448 59 177 1.0 1.0 0.00 0.00 0.00 72 1011.9
20260506030946 59 191 0.0 0.0 0.00 0.00 0.00 72 1011.8
20260506030444 59 174 1.0 1.0 0.00 0.00 0.00 72 1011.9
20260506025940 59 201 1.0 2.0 0.00 0.00 0.00 72 1012.0
20260506025437 59 131 0.0 0.0 0.00 0.00 0.00 71 1012.1
20260506024934 59 205 0.0 1.0 0.00 0.00 0.00 71 1012.0
20260506024431 59 205 0.0 0.0 0.00 0.00 0.00 70 1012.2
20260506023926 60 206 1.0 2.0 0.00 0.00 0.00 70 1012.2
20260506023423 59 199 1.0 1.0 0.00 0.00 0.00 70 1012.1
20260506022920 60 199 0.0 0.0 0.00 0.00 0.00 70 1012.4
20260506022418 60 199 0.0 0.0 0.00 0.00 0.00 69 1012.1
20260506021916 60 199 0.0 0.0 0.00 0.00 0.00 69 1011.9
20260506021413 60 199 0.0 0.0 0.00 0.00 0.00 69 1012.1
20260506020909 60 199 0.0 0.0 0.00 0.00 0.00 68 1012.3
20260506020408 61 199 0.0 0.0 0.00 0.00 0.00 68 1012.4
20260506015904 61 199 0.0 0.0 0.00 0.00 0.00 67 1012.3
20260506015402 61 199 1.0 2.0 0.00 0.00 0.00 67 1012.3
20260506014858 61 207 1.0 2.0 0.00 0.00 0.00 66 1012.2
20260506014355 62 198 2.0 2.0 0.00 0.00 0.00 65 1012.3
20260506013852 62 212 2.0 3.0 0.00 0.00 0.00 65 1012.4
20260506013350 62 182 1.0 3.0 0.00 0.00 0.00 64 1012.3
20260506012845 63 208 1.0 2.0 0.00 0.00 0.00 64 1012.2
20260506012343 63 188 1.0 2.0 0.00 0.00 0.00 64 1012.2
20260506011840 63 182 0.0 0.0 0.00 0.00 0.00 63 1011.9
20260506011336 63 202 1.0 2.0 0.00 0.00 0.00 63 1011.9
20260506010834 63 208 1.0 3.0 0.00 0.00 0.00 62 1012.1
20260506010332 64 213 2.0 3.0 0.00 0.00 0.00 62 1012.0
20260506005829 64 185 1.0 2.0 0.00 0.00 0.00 61 1011.9
20260506005325 64 208 0.0 1.0 0.00 0.00 0.00 61 1011.8
20260506004821 65 197 1.0 2.0 0.00 0.00 0.00 60 1012.0
20260506004319 65 177 1.0 2.0 0.00 0.00 0.00 60 1011.8
20260506003815 65 165 0.0 1.0 0.00 0.00 0.00 59 1011.8
20260506003312 65 162 0.0 1.0 0.00 0.00 0.00 60 1011.9
20260506002808 66 132 0.0 1.0 0.00 0.00 0.00 59 1012.0
20260506002306 66 164 1.0 2.0 0.00 0.00 0.00 58 1011.5
20260506001800 66 167 1.0 1.0 0.00 0.00 0.00 59 1011.3
20260506001258 66 152 0.0 2.0 0.00 0.00 0.00 58 1011.2
20260506000754 66 206 1.0 3.0 0.00 0.00 0.00 58 1011.1
20260506000254 67 158 1.0 2.0 0.00 0.00 0.00 58 1010.9
20260505235749 67 156 1.0 1.0 0.00 0.00 0.00 57 1010.7
20260505235246 68 180 1.0 1.0 0.00 0.00 0.00 56 1010.7
20260505234743 68 204 2.0 4.0 0.00 0.00 0.00 55 1010.6
20260505234241 68 199 1.0 1.0 0.00 0.00 0.00 55 1010.7
20260505233737 68 171 1.0 3.0 0.00 0.00 0.00 56 1010.6
20260505233235 67 203 2.0 2.0 0.00 0.00 0.00 57 1010.6
20260505232732 67 162 0.0 2.0 0.00 0.00 0.00 57 1010.6
20260505232229 66 173 1.0 3.0 0.00 0.00 0.00 57 1010.5
20260505231726 66 196 2.0 2.0 0.00 0.00 0.00 59 1010.7
20260505231225 65 110 0.0 3.0 0.00 0.00 0.00 59 1010.4
20260505230723 64 227 3.0 9.0 0.00 0.00 0.00 60 1010.3
20260505230219 63 165 3.0 3.0 0.00 0.00 0.00 62 1010.5
20260505225716 63 233 4.0 11.0 0.00 0.00 0.00 62 1008.8
20260505225213 63 239 7.0 13.0 0.00 0.00 0.00 61 1008.7
20260505224708 64 245 5.0 11.0 0.00 0.00 0.00 61 1008.8
20260505224206 64 229 7.0 11.0 0.00 0.00 0.00 61 1008.6
20260505223703 64 264 8.0 11.0 0.00 0.00 0.00 60 1008.5
20260505223159 64 225 4.0 18.0 0.00 0.00 0.00 61 1008.5
20260505222655 64 174 7.0 11.0 0.00 0.00 0.00 61 1008.6
20260505222151 63 241 10.0 13.0 0.00 0.00 0.00 61 1008.4
20260505221649 63 223 6.0 8.0 0.00 0.00 0.00 61 1008.3
20260505221145 63 284 8.0 15.0 0.00 0.00 0.00 61 1008.4
20260505220643 63 260 7.0 10.0 0.00 0.00 0.00 61 1008.3
20260505220140 63 205 6.0 13.0 0.00 0.00 0.00 61 1008.3
20260505215638 63 215 8.0 15.0 0.00 0.00 0.00 61 1008.1
20260505215136 64 284 6.0 10.0 0.00 0.00 0.00 61 1008.2
20260505214634 64 229 6.0 14.0 0.00 0.00 0.00 61 1008.2
20260505214130 64 253 7.0 10.0 0.00 0.00 0.00 60 1008.4
20260505213628 64 242 6.0 13.0 0.00 0.00 0.00 61 1008.2
20260505213124 64 210 7.0 11.0 0.00 0.00 0.00 61 1008.2
20260505212620 63 216 6.0 18.0 0.00 0.00 0.00 62 1008.2
20260505212118 63 182 8.0 18.0 0.00 0.00 0.00 62 1008.3
20260505211615 64 87 9.0 18.0 0.00 0.00 0.00 61 1008.4
20260505211112 64 143 6.0 14.0 0.00 0.00 0.00 62 1008.3
20260505210609 64 127 3.0 11.0 0.00 0.00 0.00 61 1008.3
20260505210106 64 205 7.0 13.0 0.00 0.00 0.00 61 1008.1
20260505205603 65 194 9.0 13.0 0.00 0.00 0.00 59 1008.0
20260505205101 66 234 7.0 17.0 0.00 0.00 0.00 58 1008.2
20260505204558 67 136 6.0 13.0 0.00 0.00 0.00 57 1008.0
20260505204055 67 229 6.0 11.0 0.00 0.00 0.00 57 1008.2
20260505203551 68 204 5.0 13.0 0.00 0.00 0.00 57 1008.2
20260505203049 68 241 5.0 7.0 0.00 0.00 0.00 57 1008.3
20260505202545 68 226 4.0 14.0 0.00 0.00 0.00 57 1008.2
20260505202041 68 253 6.0 13.0 0.00 0.00 0.00 56 1008.2
20260505201538 67 258 8.0 11.0 0.00 0.00 0.00 56 1008.2
20260505201036 67 265 4.0 15.0 0.00 0.00 0.00 58 1008.0
20260505200533 68 228 3.0 11.0 0.00 0.00 0.00 57 1008.3
20260505200030 68 223 3.0 15.0 0.00 0.00 0.00 55 1008.4
20260505195526 68 235 9.0 13.0 0.00 0.00 0.00 56 1008.4
20260505195024 68 177 9.0 13.0 0.00 0.00 0.00 55 1008.5
20260505194521 69 231 6.0 14.0 0.00 0.00 0.00 55 1008.6
20260505194016 69 195 4.0 13.0 0.00 0.00 0.00 56 1008.8
20260505193513 68 241 7.0 16.0 0.00 0.00 0.00 56 1008.9
20260505193010 68 253 6.0 15.0 0.00 0.00 0.00 57 1008.8
20260505192509 67 240 10.0 15.0 0.00 0.00 0.00 57 1009.0
20260505192006 67 235 6.0 17.0 0.00 0.00 0.00 58 1009.0
20260505191504 68 236 5.0 10.0 0.00 0.00 0.00 57 1009.1
20260505191002 68 233 4.0 9.0 0.00 0.00 0.00 56 1009.3
20260505190456 67 248 6.0 8.0 0.00 0.00 0.00 57 1009.4
20260505185952 67 238 5.0 8.0 0.00 0.00 0.00 57 1009.6
20260505185450 67 231 7.0 14.0 0.00 0.00 0.00 57 1009.6
20260505184946 67 250 6.0 14.0 0.00 0.00 0.00 56 1009.7
20260505184443 68 242 7.0 13.0 0.00 0.00 0.00 56 1009.8
20260505183939 68 119 2.0 15.0 0.00 0.00 0.00 56 1009.7
20260505183436 69 218 6.0 11.0 0.00 0.00 0.00 54 1009.8
20260505182933 69 229 3.0 11.0 0.00 0.00 0.00 54 1009.9
20260505182430 69 227 9.0 14.0 0.00 0.00 0.00 53 1009.9
20260505181926 70 188 5.0 9.0 0.00 0.00 0.00 53 1009.7
20260505181424 70 214 6.0 10.0 0.00 0.00 0.00 54 1009.8
20260505180920 69 208 3.0 7.0 0.00 0.00 0.00 54 1009.8
20260505180417 68 178 4.0 8.0 0.00 0.00 0.00 55 1009.9
20260505175913 69 225 6.0 10.0 0.00 0.00 0.00 54 1009.9
20260505175409 68 216 4.0 9.0 0.00 0.00 0.00 54 1010.0
20260505174906 69 239 6.0 10.0 0.00 0.00 0.00 54 1009.8
20260505174404 70 247 8.0 10.0 0.00 0.00 0.00 53 1010.0
20260505173900 71 210 4.0 7.0 0.00 0.00 0.00 51 1010.2
20260505173356 70 222 4.0 7.0 0.00 0.00 0.00 53 1010.1
20260505172853 69 204 8.0 11.0 0.00 0.00 0.00 53 1010.1
20260505172351 69 209 4.0 11.0 0.00 0.00 0.00 54 1010.2
20260505171850 69 246 7.0 10.0 0.00 0.00 0.00 52 1010.3
20260505171348 71 223 10.0 11.0 0.00 0.00 0.00 51 1010.3
20260505170844 72 230 3.0 9.0 0.00 0.00 0.00 50 1010.6
20260505170341 71 124 4.0 8.0 0.00 0.00 0.00 52 1010.6
20260505165836 71 173 4.0 11.0 0.00 0.00 0.00 51 1010.9
20260505165332 72 292 5.0 9.0 0.00 0.00 0.00 50 1010.7
20260505164828 72 245 4.0 11.0 0.00 0.00 0.00 51 1010.8
20260505164325 74 243 3.0 6.0 0.00 0.00 0.00 49 1010.9
20260505163823 73 163 1.0 4.0 0.00 0.00 0.00 54 1010.7
20260505163322 71 175 1.0 3.0 0.00 0.00 0.00 55 1010.8
20260505162819 70 142 0.0 1.0 0.00 0.00 0.00 55 1011.0
20260505162315 71 123 1.0 4.0 0.00 0.00 0.00 52 1011.1
20260505161813 70 128 0.0 3.0 0.00 0.00 0.00 55 1011.4
20260505161310 72 157 1.0 6.0 0.00 0.00 0.00 50 1011.5
20260505160807 74 124 2.0 2.0 0.00 0.00 0.00 48 1011.7
20260505160305 74 225 4.0 6.0 0.00 0.00 0.00 47 1011.7
20260505153244 73 162 1.0 6.0 0.00 0.00 0.00 50 1011.9
20260505152741 72 195 4.0 7.0 0.00 0.00 0.00 49 1011.9
20260505152238 72 199 3.0 7.0 0.00 0.00 0.00 49 1011.9
20260505151737 70 117 0.0 2.0 0.00 0.00 0.00 53 1012.0
20260505151235 69 154 1.0 6.0 0.00 0.00 0.00 55 1012.0
20260505150732 68 132 1.0 3.0 0.00 0.00 0.00 58 1012.1
20260505150230 67 150 0.0 2.0 0.00 0.00 0.00 60 1012.3
20260505140200 68 162 2.0 3.0 0.00 0.00 0.00 55 1011.8
20260505130123 63 215 2.0 6.0 0.00 0.00 0.00 58 1012.4
20260505124613 61 123 1.0 6.0 0.00 0.00 0.00 60 1011.9
20260505124109 61 249 5.0 7.0 0.00 0.00 0.00 61 1011.9
20260505123605 61 223 3.0 4.0 0.00 0.00 0.00 61 1012.1
20260505123102 61 213 3.0 4.0 0.00 0.00 0.00 62 1012.1
20260505122559 61 153 1.0 6.0 0.00 0.00 0.00 62 1012.0
20260505122056 60 239 2.0 3.0 0.00 0.00 0.00 62 1012.1
20260505121552 59 139 0.0 1.0 0.00 0.00 0.00 66 1012.1
20260505121049 59 152 0.0 2.0 0.00 0.00 0.00 68 1012.2
20260505120546 59 123 0.0 1.0 0.00 0.00 0.00 68 1012.0
20260505120041 59 123 0.0 1.0 0.00 0.00 0.00 67 1012.2
20260505115536 59 125 0.0 0.0 0.00 0.00 0.00 68 1012.3
20260505115034 58 261 0.0 2.0 0.00 0.00 0.00 69 1012.4
20260505114531 58 215 3.0 4.0 0.00 0.00 0.00 67 1012.6
20260505114027 57 245 3.0 3.0 0.00 0.00 0.00 68 1012.4
20260505113523 56 206 2.0 4.0 0.00 0.00 0.00 70 1012.6
20260505113020 55 203 2.0 2.0 0.00 0.00 0.00 71 1012.6
20260505112516 55 235 2.0 3.0 0.00 0.00 0.00 72 1012.6
20260505112015 55 226 2.0 3.0 0.00 0.00 0.00 72 1012.6
20260505111514 55 207 2.0 4.0 0.00 0.00 0.00 73 1012.6
20260505111010 54 169 1.0 2.0 0.00 0.00 0.00 74 1012.6
20260505110507 54 217 2.0 4.0 0.00 0.00 0.00 74 1012.4
20260505101939 51 238 2.0 2.0 0.00 0.00 0.00 79 1012.7
20260505101438 51 174 1.0 2.0 0.00 0.00 0.00 79 1012.7
20260505100934 51 182 1.0 1.0 0.00 0.00 0.00 79 1012.5
20260505100431 51 221 2.0 3.0 0.00 0.00 0.00 78 1012.5
20260505095927 51 171 0.0 2.0 0.00 0.00 0.00 78 1012.5
20260505095424 51 237 3.0 4.0 0.00 0.00 0.00 77 1012.3
20260505094920 51 195 1.0 3.0 0.00 0.00 0.00 77 1012.4
20260505094417 51 250 3.0 3.0 0.00 0.00 0.00 76 1012.6
20260505093913 51 198 2.0 2.0 0.00 0.00 0.00 76 1012.4
20260505093410 51 184 1.0 1.0 0.00 0.00 0.00 75 1012.5
20260505092908 52 184 0.0 1.0 0.00 0.00 0.00 74 1012.4
20260505092405 52 186 0.0 3.0 0.00 0.00 0.00 73 1012.5
20260505091902 52 212 2.0 2.0 0.00 0.00 0.00 73 1012.5
20260505091400 52 244 3.0 3.0 0.00 0.00 0.00 72 1012.6
20260505090858 52 210 2.0 4.0 0.00 0.00 0.00 72 1012.5
20260505090356 52 234 2.0 3.0 0.00 0.00 0.00 71 1012.6
20260505085853 53 230 2.0 3.0 0.00 0.00 0.00 71 1012.5
20260505085351 53 201 1.0 3.0 0.00 0.00 0.00 70 1012.6
20260505084849 53 178 1.0 2.0 0.00 0.00 0.00 70 1012.7
20260505084347 53 170 1.0 4.0 0.00 0.00 0.00 70 1012.8
20260505083844 52 179 2.0 4.0 0.00 0.00 0.00 72 1012.6
20260505083341 50 190 1.0 4.0 0.00 0.00 0.00 75 1012.7
20260505082837 50 195 0.0 0.0 0.00 0.00 0.00 75 1012.8
20260505082334 50 195 0.0 0.0 0.00 0.00 0.00 74 1012.7
20260505081830 50 195 0.0 0.0 0.00 0.00 0.00 74 1012.8
20260505081327 50 195 0.0 0.0 0.00 0.00 0.00 73 1012.8
20260505080824 51 195 0.0 0.0 0.00 0.00 0.00 73 1012.8
20260505080320 51 195 0.0 0.0 0.00 0.00 0.00 72 1012.9
20260505075815 51 196 0.0 0.0 0.00 0.00 0.00 71 1012.8
20260505075313 51 195 0.0 0.0 0.00 0.00 0.00 70 1012.8
20260505074810 52 196 0.0 0.0 0.00 0.00 0.00 70 1012.7
20260505074307 52 196 0.0 0.0 0.00 0.00 0.00 69 1013.0
20260505073804 53 196 0.0 1.0 0.00 0.00 0.00 68 1012.7
20260505073302 53 196 0.0 1.0 0.00 0.00 0.00 67 1012.8
20260505072759 53 196 0.0 1.0 0.00 0.00 0.00 66 1012.7
20260505072255 54 195 0.0 0.0 0.00 0.00 0.00 65 1012.8
20260505071751 55 195 0.0 0.0 0.00 0.00 0.00 64 1012.7
20260505071247 55 195 0.0 1.0 0.00 0.00 0.00 62 1012.7
20260505070745 55 196 0.0 2.0 0.00 0.00 0.00 61 1012.6
20260505070241 55 183 1.0 2.0 0.00 0.00 0.00 62 1012.8
20260505065737 55 179 0.0 1.0 0.00 0.00 0.00 62 1012.7
20260505065234 55 182 1.0 2.0 0.00 0.00 0.00 61 1012.6
20260505064731 55 173 1.0 1.0 0.00 0.00 0.00 61 1012.5
20260505064229 56 175 0.0 1.0 0.00 0.00 0.00 61 1012.4
20260505063726 56 171 0.0 2.0 0.00 0.00 0.00 60 1012.6
20260505063222 56 182 0.0 1.0 0.00 0.00 0.00 59 1012.5
20260505062719 57 169 0.0 1.0 0.00 0.00 0.00 58 1012.5
20260505062217 57 176 0.0 2.0 0.00 0.00 0.00 57 1012.4
20260505061713 57 200 1.0 2.0 0.00 0.00 0.00 56 1012.5
20260505061211 58 171 1.0 1.0 0.00 0.00 0.00 56 1012.5
20260505060708 58 175 1.0 2.0 0.00 0.00 0.00 55 1012.6
20260505060205 58 232 2.0 3.0 0.00 0.00 0.00 55 1012.7
20260505055700 59 197 2.0 3.0 0.00 0.00 0.00 54 1012.7
20260505055157 59 227 3.0 3.0 0.00 0.00 0.00 53 1012.5
20260505054654 59 249 7.0 8.0 0.00 0.00 0.00 53 1012.7
20260505054152 59 208 2.0 6.0 0.00 0.00 0.00 53 1012.7
20260505053650 59 191 1.0 2.0 0.00 0.00 0.00 53 1012.6
20260505053146 59 208 1.0 2.0 0.00 0.00 0.00 53 1012.6
20260505052643 59 183 1.0 4.0 0.00 0.00 0.00 53 1012.6
20260505052140 59 165 1.0 6.0 0.00 0.00 0.00 52 1012.7
20260505051637 59 208 2.0 4.0 0.00 0.00 0.00 52 1012.7
20260505051136 59 190 1.0 6.0 0.00 0.00 0.00 52 1012.7
20260505050633 60 173 1.0 2.0 0.00 0.00 0.00 52 1012.6
20260505050131 60 178 1.0 3.0 0.00 0.00 0.00 52 1012.5